Weather History for Concord, CA

Change the Weather History Date:

Thursday, June 13, 2013

  Actual Average Record
Temperature  
Mean Temperature 68 °F 69 °F  
Max Temperature 83 °F 82 °F 106 °F (2000)
Min Temperature 53 °F 56 °F 52 °F (1999)
Degree Days  
Heating Degree Days 0    
Month to date heating degree days 7  
Since 1 June heating degree days 7  
Since 1 July heating degree days 2411  
Cooling Degree Days 3    
Month to date cooling degree days 57  
Year to date cooling degree days 149  
Since 1 June cooling degree days 57  
Growing Degree Days 18 (Base 50)    
Moisture  
Dew Point 43 °F    
Average Humidity 49    
Maximum Humidity 77    
Minimum Humidity 20    
Precipitation  
Precipitation 0.00 in - 0.00 in (2014)
Month to date precipitation 0.00  
Year to date precipitation 1.94  
Since 1 July precipitation 11.58  
Sea Level Pressure  
Sea Level Pressure 29.99 in    
Wind  
Wind Speed 8 mph (SW)    
Max Wind Speed 15 mph    
Max Gust Speed 24 mph    
Visibility 10 miles    
Events      
T = Trace of Precipitation, MM = Missing Value Source: NWS Daily Summary

Daily Weather History Graph

Daily Weather History Graph

Search for Another Location

Airport:

Trip Planner

Search our weather history database for the weather conditions in past years. The results will help you decide how hot, cold, wet, or windy it might be!

Date:

Astronomy

Jun. 13, 2013 Rise Set
Actual Time 5:45 AM PDT 8:31 PM PDT
Civil Twilight 5:13 AM PDT 9:03 PM PDT
Nautical Twilight 4:34 AM PDT 9:42 PM PDT
Astronomical Twilight 3:49 AM PDT 10:27 PM PDT
Moon 10:23 AM PDT (6/13) 11:45 PM PDT (6/13)
Length of Visible Light 15h 49m
Length of Day
14h 46m
Waxing Crescent, 22% of the Moon is Illuminated
Jun 13
Waxing Crescent
Jun 16
First Quarter
Jun 23
Full
Jun 29
Last Quarter
Jul 8
New

Hourly Weather History & Observations

Time (PDT) Temp. Dew Point Humidity Pressure Visibility Wind Dir Wind Speed Gust Speed Precip Events Conditions
12:53 AM 55.9 °F 46.9 °F 72% 29.95 in 10.0 mi South 12.7 mph 19.6 mph N/A   Clear
1:53 AM 55.0 °F 46.9 °F 74% 29.96 in 10.0 mi SSW 9.2 mph - N/A   Clear
2:53 AM 55.0 °F 46.0 °F 72% 29.97 in 10.0 mi South 9.2 mph - N/A   Clear
3:53 AM 54.0 °F 46.0 °F 75% 29.97 in 10.0 mi South 8.1 mph - N/A   Clear
4:53 AM 53.1 °F 45.0 °F 74% 29.99 in 10.0 mi South 8.1 mph - N/A   Clear
5:53 AM 53.1 °F 46.0 °F 77% 30.00 in 6.0 mi South 9.2 mph - N/A   Haze
6:53 AM 54.0 °F 46.0 °F 75% 30.02 in 10.0 mi South 10.4 mph - N/A   Clear
7:53 AM 57.9 °F 45.0 °F 62% 30.03 in 10.0 mi SSW 6.9 mph - N/A   Clear
8:53 AM 63.0 °F 41.0 °F 45% 30.04 in 10.0 mi West 5.8 mph - N/A   Clear
9:53 AM 66.0 °F 41.0 °F 40% 30.04 in 10.0 mi Calm Calm - N/A   Clear
10:53 AM 70.0 °F 42.1 °F 36% 30.04 in 10.0 mi NNW 5.8 mph - N/A   Clear
11:53 AM 75.0 °F 39.9 °F 28% 30.04 in 10.0 mi NNW 8.1 mph - N/A   Clear
12:53 PM 77.0 °F 39.0 °F 25% 30.03 in 10.0 mi NNW 10.4 mph - N/A   Clear
1:53 PM 80.1 °F 37.9 °F 22% 30.01 in 10.0 mi NW 12.7 mph - N/A   Clear
2:53 PM 82.0 °F 37.0 °F 20% 30.00 in 10.0 mi NW 13.8 mph 18.4 mph N/A   Clear
3:53 PM 82.0 °F 37.0 °F 20% 29.98 in 10.0 mi West 8.1 mph - N/A   Clear
4:53 PM 81.0 °F 37.9 °F 21% 29.97 in 10.0 mi WNW 5.8 mph 16.1 mph N/A   Clear
5:53 PM 80.1 °F 36.0 °F 20% 29.96 in 10.0 mi WSW 12.7 mph - N/A   Clear
6:53 PM 79.0 °F 39.0 °F 24% 29.95 in 10.0 mi West 9.2 mph - N/A   Clear
7:53 PM 75.0 °F 42.1 °F 31% 29.95 in 10.0 mi WSW 6.9 mph - N/A   Clear
8:53 PM 71.1 °F 46.0 °F 41% 29.95 in 10.0 mi South 4.6 mph - N/A   Clear
9:53 PM 68.0 °F 46.9 °F 47% 29.96 in 10.0 mi South 5.8 mph - N/A   Clear
10:53 PM 66.9 °F 46.9 °F 49% 29.96 in 10.0 mi Calm Calm - N/A   Clear
11:53 PM 64.9 °F 44.1 °F 47% 29.95 in 10.0 mi SW 3.5 mph - N/A   Clear